Location: *
(44.3526°S, 44.9014°W)
Time: 23:55:58
(UTC+00:00)

Meteor 1-11 - Pass Details

Date: 13 May 2025
Orbit: 835 x 889 km, 81.2° (Epoch: 14 June)

Event Time Altitude Azimuth Distance (km) Brightness Sun altitude
Rises 20:38:12 0° 0° (N) 3,491 7.6 -9.8°
Reaches altitude 10° 20:40:39 10° 2° (N) 2,559 6.9 -10.2°
Maximum altitude 20:46:27 67° 84° (E) 967 4.3 -11.2°
Drops below altitude 10° 20:52:16 10° 164° (SSE) 2,571 6.4 -12.2°
Sets 20:54:44 0° 167° (SSE) 3,510 7.1 -12.7°
